Regional Weather Roundup
Issued by NWS

Home | Current Version | Previous Version | Graphics & Text | Print | Product List | Glossary On
Versions: 1 2 3 4 5 6 7 8 9 10 11 12 13 14 15 16 17 18 19 20 21 22 23 24 25 26 27 28 29 30 31 32 33 34 35 36 37 38 39 40 41 42 43 44 45 46 47 48 49 50
000
ASUS43 KBIS 140902
RWRND

NORTH DAKOTA REGIONAL WEATHER ROUNDUP
NATIONAL WEATHER SERVICE BISMARCK ND
300 AM CST SUN FEB 14 2016

NOTE: "FAIR" INDICATES FEW OR NO CLOUDS BELOW 12,000 FEET WITH NO
SIGNIFICANT WEATHER AND/OR OBSTRUCTIONS TO VISIBILITY.


NDZ001>003-009>011-017-141000-
NORTHWEST NORTH DAKOTA

CITY           SKY/WX    TMP DP  RH WIND       PRES   REMARKS
WILLISTON      CLOUDY    31  27  85 CALM      29.78F
MINOT          CLOUDY    23  17  78 W5        29.73S WCI  17
MINOT AFB      CLOUDY    17  17  99 CALM      29.73F
$$

NDZ018>021-031>035-040>046-141000-
SOUTHWEST NORTH DAKOTA

CITY           SKY/WX    TMP DP  RH WIND       PRES   REMARKS
BISMARCK       CLOUDY    21  18  88 SE3       29.79S FOG
DICKINSON      CLOUDY    32  29  88 NW22G30   29.76S WCI  19
GARRISON         N/A     26  24  92 W14       29.74F WCI  14
HETTINGER ARPT CLOUDY    34  29  82 NW23G35   29.80S
$$

NDZ004>008-012>016-024-026-027-054-141000-
NORTHEAST NORTH DAKOTA

CITY           SKY/WX    TMP DP  RH WIND       PRES   REMARKS
GRAND FORKS    CLOUDY    13   7  77 S21       29.95F BLWGSNOWWCI  -5
GRND FRKS AFB  CLOUDY    11   7  81 S21       29.93F WCI  -7
DEVILS LAKE    LGT SNOW  12   9  87 S16       29.82F FOG     WCI  -5
$$

NDZ022-023-025-028>030-036>039-047>053-141000-
SOUTHEAST NORTH DAKOTA

CITY           SKY/WX    TMP DP  RH WIND       PRES   REMARKS
FARGO          LGT SNOW  14   7  73 SE21G29   29.98F WCI  -4
JAMESTOWN      LGT SNOW  14   9  80 S21       29.82F WCI  -4
$$




USA.gov is the U.S. government's official web portal to all federal, state and local government web resources and services.